TimeCST,TemperatureF,Dew PointF,Humidity,Sea Level PressureIn,VisibilityMPH,Wind Direction,Wind SpeedMPH,Gust SpeedMPH,PrecipitationIn,Events,Conditions,WindDirDegrees,DateUTC
12:53 AM,64.9,60.1,84,29.95,10.0,SSW,5.8,-,N/A,,Clear,200,2012-12-04 06:53:00
1:53 AM,64.0,59.0,84,29.94,10.0,SSW,5.8,-,N/A,,Clear,200,2012-12-04 07:53:00
2:53 AM,63.0,59.0,87,29.97,10.0,SW,6.9,-,N/A,,Clear,220,2012-12-04 08:53:00
3:07 AM,59.0,44.6,59,29.99,10.0,WNW,9.2,-,N/A,,Partly Cloudy,300,2012-12-04 09:07:00
3:53 AM,55.9,39.9,55,29.98,10.0,WNW,5.8,-,N/A,,Clear,300,2012-12-04 09:53:00
4:42 AM,55.4,39.2,54,30.01,10.0,West,6.9,-,N/A,,Mostly Cloudy,280,2012-12-04 10:42:00
4:53 AM,54.0,39.9,59,30.00,10.0,WNW,4.6,-,N/A,,Mostly Cloudy,290,2012-12-04 10:53:00
5:11 AM,53.6,39.2,58,30.03,10.0,West,3.5,-,N/A,,Scattered Clouds,280,2012-12-04 11:11:00
5:53 AM,53.1,41.0,64,30.04,10.0,WNW,8.1,-,N/A,,Partly Cloudy,300,2012-12-04 11:53:00
6:53 AM,53.1,41.0,64,30.07,10.0,NW,8.1,-,N/A,,Clear,310,2012-12-04 12:53:00
7:53 AM,54.0,42.1,64,30.11,10.0,NW,8.1,-,N/A,,Clear,320,2012-12-04 13:53:00
8:53 AM,57.0,42.1,57,30.14,10.0,NNW,15.0,-,N/A,,Clear,340,2012-12-04 14:53:00
9:53 AM,61.0,43.0,52,30.15,10.0,North,13.8,21.9,N/A,,Clear,360,2012-12-04 15:53:00
10:53 AM,64.0,44.1,48,30.17,10.0,North,15.0,-,N/A,,Clear,360,2012-12-04 16:53:00
11:53 AM,66.9,43.0,42,30.17,10.0,North,16.1,21.9,N/A,,Clear,350,2012-12-04 17:53:00
12:53 PM,66.0,41.0,40,30.17,10.0,North,16.1,23.0,N/A,,Clear,360,2012-12-04 18:53:00
1:53 PM,71.1,37.9,30,30.14,10.0,North,15.0,20.7,N/A,,Clear,350,2012-12-04 19:53:00
2:53 PM,72.0,28.9,20,30.14,10.0,North,12.7,21.9,N/A,,Clear,10,2012-12-04 20:53:00
3:53 PM,72.0,26.1,18,30.17,10.0,North,16.1,20.7,N/A,,Clear,350,2012-12-04 21:53:00
4:53 PM,68.0,23.0,18,30.18,10.0,North,13.8,-,N/A,,Clear,360,2012-12-04 22:53:00
5:53 PM,62.1,24.1,23,30.20,10.0,North,8.1,-,N/A,,Clear,360,2012-12-04 23:53:00
6:53 PM,57.9,23.0,26,30.20,10.0,North,8.1,-,N/A,,Clear,360,2012-12-05 00:53:00
7:53 PM,53.1,23.0,31,30.24,10.0,NNW,6.9,-,N/A,,Clear,330,2012-12-05 01:53:00
8:53 PM,52.0,21.0,30,30.25,10.0,NNW,5.8,-,N/A,,Clear,330,2012-12-05 02:53:00
9:53 PM,48.9,21.9,35,30.25,10.0,NNW,4.6,-,N/A,,Clear,340,2012-12-05 03:53:00
10:53 PM,48.9,21.0,33,30.26,10.0,North,5.8,-,N/A,,Clear,350,2012-12-05 04:53:00
11:53 PM,45.0,23.0,42,30.27,10.0,North,3.5,-,N/A,,Clear,350,2012-12-05 05:53:00